Topics

Sales & Marketing — Oct 23, 2017 4:37:42 AM

06/12/17 — Jun 11, 2017 10:54:13 PM

06/05/17 — Jun 4, 2017 11:05:33 PM

05/29/17 — May 28, 2017 10:31:08 PM

05/22/17 — May 21, 2017 9:57:24 PM

05/15/17 — May 15, 2017 4:53:57 AM

Lord of the Rings: Han Byul Kim — May 8, 2017 1:55:41 PM

Lord of the Rings: Jessica Jiheon Kim — May 8, 2017 1:47:48 PM

Lord of the Rings: Tae Heang Kim — May 8, 2017 1:44:46 PM

Lord of the Rings: Zach Kim — May 8, 2017 1:41:48 PM

Lord of the Rings: Bongcheol Shim — May 8, 2017 1:40:03 PM

Lord of the Rings: AJ So Myung Ro — May 8, 2017 1:37:32 PM

Lord of the Rings: Cloud Wunhan Park — May 8, 2017 1:34:30 PM

Lord of the Rings: Jerry Choi — May 8, 2017 1:23:01 PM

05/08/17 — May 7, 2017 10:36:22 PM

05/01/17 — Apr 30, 2017 10:01:03 PM

Success Inforgraph — Apr 28, 2017 3:26:47 AM

04/24/17 — Apr 23, 2017 10:20:38 PM

04/17/17 — Apr 16, 2017 11:13:57 PM

4차 산업혁명과 디지털 경제의 좌표 — Apr 14, 2017 2:13:00 AM

03/05/17 — Apr 10, 2017 4:18:43 AM

04/10/17 — Apr 10, 2017 4:16:52 AM

한국 vs 미국 직장 1mm 차이 — Apr 2, 2017 1:26:46 PM

TSA — Mar 31, 2017 4:58:22 AM

The Ultimate Cheat Sheet for your Startup’s Investor Pitch Deck — Mar 31, 2017 4:50:26 AM

Marketing — Mar 31, 2017 4:24:20 AM

Samsung and Choi-nomics — Mar 25, 2017 2:17:13 AM

Complex System — Mar 11, 2017 3:38:15 AM

* Too Connected To Fail — Mar 9, 2017 2:19:22 PM

Free coffee — Mar 7, 2017 2:28:09 AM

Toyota Way: 5 Whys — Mar 7, 2017 2:04:06 AM

Education 학벌 — Mar 7, 2017 1:38:49 AM

~Random topics — Mar 5, 2017 12:19:17 AM

LinkedIn Series B pitch deck — Mar 5, 2017 12:18:08 AM

3D printer — Mar 5, 2017 12:01:14 AM

eMoji — Mar 4, 2017 11:50:12 PM

청년들은 왜 '예쁜 카페'에 집착하게 됐나 — Mar 4, 2017 11:47:21 PM

Kuyashi-i (분발, 복수): Trump — Mar 4, 2017 11:41:30 PM

Samsung Family tree — Mar 4, 2017 11:40:04 PM

Netflix Culture — Mar 4, 2017 11:36:59 PM

Forced Ranking — Mar 4, 2017 11:08:54 PM

풍수화 — Mar 2, 2017 6:38:24 AM

Ycombinator — Mar 2, 2017 6:37:20 AM

* Fortune 500 life — Mar 2, 2017 6:35:27 AM

HowToDoAStartup() — Mar 2, 2017 6:34:30 AM

Leadership — Mar 2, 2017 6:33:54 AM

Accounting — Mar 2, 2017 6:33:15 AM

Startup HR — Mar 2, 2017 6:32:28 AM

College Startups — Mar 2, 2017 6:31:47 AM

Technocrats — Mar 2, 2017 6:31:11 AM

Venture Capital — Mar 2, 2017 6:29:47 AM

Silicon Valley — Mar 2, 2017 6:20:57 AM

Gamification — Mar 2, 2017 6:17:49 AM

훌륭한 보스의 12가지 사인 — Mar 2, 2017 6:16:14 AM

Coupang — Mar 2, 2017 6:12:02 AM

TIPS — Mar 2, 2017 6:06:06 AM

대학 새내기들 위한 10가지 조언 — Mar 2, 2017 6:01:11 AM

Korea Startup Market — Mar 2, 2017 5:59:51 AM

Voice Recognition — Mar 2, 2017 5:53:31 AM

education — Mar 2, 2017 5:41:03 AM

Venture guideline — Mar 2, 2017 5:38:54 AM

Bitcoin — Mar 2, 2017 5:35:19 AM

Game — Mar 2, 2017 5:30:05 AM

Government Regulation — Mar 2, 2017 5:27:13 AM

eCommerce — Mar 2, 2017 5:23:17 AM

Drone — Mar 2, 2017 5:21:37 AM

Lawyers — Mar 2, 2017 5:13:59 AM

P2P — Mar 2, 2017 5:10:05 AM

* Startup mentality — Mar 2, 2017 5:05:59 AM

Language — Mar 2, 2017 5:04:36 AM

Self Driving Car — Mar 2, 2017 5:02:35 AM

Handle (robot) — Mar 2, 2017 4:59:26 AM

SpaceX — Mar 2, 2017 4:58:48 AM

Fujitsu Teleworks for All Employees — Mar 2, 2017 4:55:59 AM

NaverPay — Mar 2, 2017 4:52:38 AM

《리더는 마지막에 먹는다》사이먼 사이넥 TED 강의 — Mar 2, 2017 4:52:03 AM

Decentralized Samsung — Mar 2, 2017 4:44:11 AM

AI : Naver Project J — Mar 2, 2017 4:34:07 AM

Google Revenue 2002-2016 — Mar 2, 2017 4:30:34 AM

Uber, Lyft, Scoot — Mar 2, 2017 4:28:32 AM

YouTube — Mar 2, 2017 4:27:08 AM

First Autonomous Driving Test on the Road in Korea by Naver Labs — Mar 2, 2017 4:19:39 AM

Startup's story platform — Mar 2, 2017 4:18:41 AM

Retail: Convenient Store — Mar 2, 2017 4:10:38 AM

Uber — Mar 2, 2017 4:07:10 AM

Mobile World Congress — Mar 2, 2017 4:06:24 AM

Global M&A: 쌍용 마힌드라 — Mar 2, 2017 4:04:41 AM

Fortune & Fame: Barack and Michelle Obama sign record book deals with Penguin Random House — Mar 2, 2017 3:57:56 AM

IPO: Snap prices IPO at $17 per share in biggest public debut for U.S. tech company since Facebook — Mar 2, 2017 3:51:53 AM